This demonstration page uses our WeatherBlox Daily Observations layout. Learn more.

Left ArrowRight Arrow

36.17497, -115.13722

Hourly Observations for October 21, 2021

Temp ( °F °C ) Dew Point ( °F °C ) Humidity (%) Winds ( mph kmh ) Pressure ( in mb ) Visibility ( mi km ) Precip ( " mm )
12:53 am 00:53 Clear 59 15 29 -1.7 32 32 NW 8 13 30.14 1021 10 16 N/A
1:53 am 01:53 Clear 59 15 31 -0.6 35 35 WNW 6 9 30.15 1021 10 16 N/A
2:53 am 02:53 Clear 57 13.9 32 undefined 39 39 WNW 7 11 30.16 1021 10 16 N/A
3:53 am 03:53 Clear 57 13.9 30 -1.1 36 36 N N/A 30.15 1021 10 16 N/A
4:53 am 04:53 Clear 55 12.8 31 -0.6 40 40 W 6 9 30.16 1022 10 16 N/A
5:53 am 05:53 Clear 54 12.2 33 0.6 45 45 N N/A 30.18 1022 10 16 N/A
6:53 am 06:53 Clear 53 11.7 33 0.6 47 47 WNW 6 9 30.19 1022 10 16 N/A
7:53 am 07:53 Sunny 57 13.9 33 0.6 41 41 WNW 3 6 30.21 1023 10 16 N/A
8:53 am 08:53 Sunny 62 16.7 32 undefined 32 32 N N/A 30.23 1024 10 16 N/A
9:53 am 09:53 Sunny 67 19.4 32 undefined 27 27 N N/A 30.23 1024 10 16 N/A
10:53 am 10:53 Sunny 69 20.6 31 -0.6 24 24 N N/A 30.22 1023 10 16 N/A
11:53 am 11:53 Sunny 73 22.8 30 -1.1 20 20 E 5 7 30.20 1023 10 16 N/A
12:53 pm 12:53 Sunny 75 23.9 30 -1.1 19 19 ESE 7 11 30.17 1022 10 16 N/A
1:53 pm 13:53 Sunny 78 25.6 31 -0.6 18 18 ESE 5 7 30.13 1020 10 16 N/A
2:53 pm 14:53 Sunny 78 25.6 31 -0.6 18 18 VRB 3 6 30.11 1020 10 16 N/A
3:53 pm 15:53 Sunny 79 26.1 31 -0.6 17 17 N N/A 30.11 1020 10 16 N/A
4:53 pm 16:53 Sunny 79 26.1 30 -1.1 17 17 N N/A 30.10 1019 10 16 N/A
5:53 pm 17:53 Sunny 77 25 30 -1.1 18 18 N N/A 30.09 1019 10 16 N/A
6:53 pm 18:53 Clear 74 23.3 32 undefined 21 21 N N/A 30.09 1019 10 16 N/A
7:53 pm 19:53 Clear 70 21.1 33 0.6 26 26 W 5 7 30.09 1019 10 16 N/A
8:53 pm 20:53 Clear 68 20 34 1.1 28 28 NNW 3 6 30.09 1019 10 16 N/A
9:53 pm 21:53 Clear 64 17.8 33 0.6 32 32 NW 6 9 30.09 1019 10 16 N/A
10:53 pm 22:53 Clear 63 17.2 34 1.1 34 34 NW 3 6 30.09 1019 10 16 N/A
11:53 pm 23:53 Clear 61 16.1 36 2.2 39 39 NW 7 11 30.07 1018 10 16 N/A

Powered by AerisWeather